This is the latest recevied weather packets stored in our database for station/object KG5APU. If no packets are shown the sender has not sent any weather packets the latest 10 day(s).
| Time | Temp. | Humidity | Pressure | Rain* | Wind** | Luminosity | Snow |
|---|---|---|---|---|---|---|---|
| 1788625973 | 34.44° C | 53% | 1015.5 hPa | 0 mm | - | 651 W/m² | - |
| 1788625347 | 33.89° C | 55% | 1015.6 hPa | 0 mm | - | 630 W/m² | - |
| 1788624747 | 34.44° C | 55% | 1015.7 hPa | 0 mm | - | 598 W/m² | - |
| 1788624145 | 33.89° C | 58% | 1015.5 hPa | 0 mm | - | 574 W/m² | - |
| 1788623545 | 32.78° C | 59% | 1015.6 hPa | 0 mm | - | 548 W/m² | - |
| 1788622941 | 32.22° C | 61% | 1015.9 hPa | 0 mm | - | 520 W/m² | - |
| 1788622338 | 32.78° C | 63% | 1015.6 hPa | 0 mm | - | 492 W/m² | - |
| 1788621739 | 31.67° C | 64% | 1015.5 hPa | 0 mm | - | 461 W/m² | - |
| 1788621135 | 31.11° C | 66% | 1015.6 hPa | 0 mm | - | 431 W/m² | - |
| 1788620534 | 31.11° C | 67% | 1015.5 hPa | 0 mm | - | 402 W/m² | - |
| 1788619933 | 30.56° C | 68% | 1015.5 hPa | 0 mm | - | 370 W/m² | - |
| 1788619332 | 30.56° C | 69% | 1015.5 hPa | 0 mm | - | 341 W/m² | - |
| 1788618732 | 30.56° C | 70% | 1015.3 hPa | 0 mm | - | 65 W/m² | - |
| 1788618130 | 30° C | 71% | 1015.2 hPa | 0 mm | - | 63 W/m² | - |
| 1788617528 | 29.44° C | 73% | 1015.4 hPa | 0 mm | - | 61 W/m² | - |
| 1788616923 | 30° C | 72% | 1015.7 hPa | 0 mm | - | 202 W/m² | - |
| 1788616319 | 30° C | 73% | 1015.5 hPa | 0 mm | - | 176 W/m² | - |
| 1788615718 | 28.89° C | 75% | 1015.5 hPa | 0 mm | - | 149 W/m² | - |
| 1788615113 | 28.89° C | 76% | 1015.3 hPa | 0 mm | - | 124 W/m² | - |
| 1788614508 | 28.89° C | 77% | 1015.2 hPa | 0 mm | - | 102 W/m² | - |
| 1788613903 | 28.33° C | 77% | 1015.2 hPa | 0 mm | - | 82 W/m² | - |
| 1788613304 | 28.33° C | 78% | 1015 hPa | 0 mm | - | 64 W/m² | - |
| 1788612700 | 27.78° C | 80% | 1015 hPa | 0 mm | - | 47 W/m² | - |
| 1788612098 | 27.22° C | 79% | 1014.7 hPa | 0 mm | - | 30 W/m² | - |
| 1788611496 | 26.11° C | 81% | 1014.8 hPa | 0 mm | - | 22 W/m² | - |
* Rain latest hour (hover to see other rain measurements)
** Current wind speed in m/s (hover to see current wind gust speed)